Greenland, New Hampshire, United States (03840)
Lat: 43.04N, Lon: 70.83W
Wx Zone: NHZ014
Local Info
Past Weather Observations for Sunday, July 27, 2014

NOTE: This archive is for the closest National Weather Service station to Greenland. Information may differ from the station used for current weather conditions.

Click here for Long-term Archive

Time Weather Temperature Dewpoint Humidity Pressure Winds Precip Visibility
23:58
Overcast
Fog And Mist
66°F / 19°C 66°F / 19°C 100% 29.65 in
(1004 mb)
SE 3.5 mph
(SE 6 kph)
- 2SM
23:36
Overcast
Fog And Mist
66°F / 19°C 66°F / 19°C 100% 29.68 in
(1005 mb)
SE 4.6 mph
(SE 7 kph)
- 3SM
22:58
Mostly Cloudy
Fog And Mist
66°F / 19°C 66°F / 19°C 100% 29.65 in
(1004 mb)
E 2.3 mph
(E 4 kph)
- 6SM
21:58
Partly Cloudy
Fog And Mist
66°F / 19°C 64°F / 18°C 94% 29.68 in
(1005 mb)
Calm - 5SM
21:13
Partly Cloudy
68°F / 20°C 66°F / 19°C 94% 29.68 in
(1005 mb)
SE 4.6 mph
(SE 7 kph)
- 7SM
20:58
Mostly Cloudy
Fog And Mist
68°F / 20°C 66°F / 19°C 94% 29.68 in
(1005 mb)
SE 3.5 mph
(SE 6 kph)
- 6SM
20:46
Mostly Cloudy
Fog And Mist
68°F / 20°C 66°F / 19°C 94% 29.68 in
(1005 mb)
ENE 4.6 mph
(ENE 7 kph)
- 5SM
19:58
Partly Cloudy
Fog And Mist
68°F / 20°C 66°F / 19°C 94% 29.68 in
(1005 mb)
SE 6.9 mph
(SE 11 kph)
- 6SM
19:20
Mostly Cloudy
Fog And Mist
68°F / 20°C 66°F / 19°C 94% 29.68 in
(1005 mb)
SE 6.9 mph
(SE 11 kph)
- 6SM
18:58
Overcast
70°F / 21°C 66°F / 19°C 88% 29.68 in
(1005 mb)
SE 8.1 mph
(SE 13 kph)
- 7SM
18:28
Overcast
70°F / 21°C 66°F / 19°C 88% 29.65 in
(1004 mb)
SE 6.9 mph
(SE 11 kph)
- 7SM
17:58
Overcast
70°F / 21°C 66°F / 19°C 88% 29.68 in
(1005 mb)
SE 8.1 mph
(SE 13 kph)
- 7SM
16:58
Mostly Cloudy
70°F / 21°C 66°F / 19°C 88% 29.68 in
(1005 mb)
SSE 12.7 mph
(SSE 20 kph)
- 7SM
16:30
Mostly Cloudy
Fog And Mist
70°F / 21°C 66°F / 19°C 88% 29.68 in
(1005 mb)
SSE 15 mph
(SSE 24 kph)
- 6SM
15:58
Overcast
Fog And Mist
72°F / 22°C 66°F / 19°C 83% 29.68 in
(1005 mb)
SSE 11.5 mph
(SSE 19 kph)
0.00 in
(0.00 mm)
6SM
15:13
Overcast
70°F / 21°C 66°F / 19°C 88% 29.71 in
(1006 mb)
SSE 15 mph
(SSE 24 kph)
- 7SM
15:02
Overcast
Showers
70°F / 21°C 66°F / 19°C 88% 29.71 in
(1006 mb)
SSE 13.8 mph
(SSE 22 kph)
- 7SM
14:58
Overcast
Showers In Vicinity
70°F / 21°C 68°F / 20°C 94% 29.71 in
(1006 mb)
SSE 11.5 mph
(SSE 19 kph)
- 7SM
13:58
Overcast
72°F / 22°C 68°F / 20°C 88% 29.74 in
(1007 mb)
S 8.1 mph
(S 13 kph)
0.01 in
(0.25 mm)
7SM
13:29
Overcast
70°F / 21°C 68°F / 20°C 94% 29.74 in
(1007 mb)
SSE 5.8 mph
(SSE 9 kph)
- 7SM
12:58
Overcast
Light Rain
70°F / 21°C 68°F / 20°C 94% 29.74 in
(1007 mb)
SSE 9.2 mph
(SSE 15 kph)
0.02 in
(0.51 mm)
5SM
12:10
Overcast
Light Rain
72°F / 22°C 68°F / 20°C 88% 29.74 in
(1007 mb)
S 6.9 mph
(S 11 kph)
- 4SM
11:58
Overcast
Rain
70°F / 21°C 68°F / 20°C 94% 29.74 in
(1007 mb)
SSE 5.8 mph
(SSE 9 kph)
0.17 in
(4.32 mm)
2SM
11:28
Overcast
Rain
70°F / 21°C 68°F / 20°C 94% 29.74 in
(1007 mb)
S 8.1 mph
(S 13 kph)
- 2SM
11:13
Overcast
Light Rain
72°F / 22°C 66°F / 19°C 83% 29.74 in
(1007 mb)
SSE 9.2 mph
(SSE 15 kph)
- 2SM
10:58
Overcast
Showers
73°F / 23°C 66°F / 19°C 78% 29.74 in
(1007 mb)
SE 13.8 mph
(SE 22 kph)
0.00 in
(0.00 mm)
7SM
09:58
Overcast
75°F / 24°C 66°F / 19°C 74% 29.77 in
(1008 mb)
S 9.2 mph
(S 15 kph)
- 10SM
09:28
Overcast
75°F / 24°C 66°F / 19°C 74% 29.77 in
(1008 mb)
SSE 10.4 mph
(SSE 17 kph)
- 7SM
08:58
Overcast
72°F / 22°C 66°F / 19°C 83% 29.77 in
(1008 mb)
S 8.1 mph
(S 13 kph)
- 7SM
07:58
Overcast
70°F / 21°C 66°F / 19°C 88% 29.8 in
(1009 mb)
SW 6.9 mph
(SW 11 kph)
- 7SM
06:58
Overcast
68°F / 20°C 64°F / 18°C 88% 29.8 in
(1009 mb)
SSE 5.8 mph
(SSE 9 kph)
- 7SM
06:24
Mostly Cloudy
Fog And Mist
68°F / 20°C 64°F / 18°C 88% 29.8 in
(1009 mb)
S 4.6 mph
(S 7 kph)
- 6SM
05:58
Partly Cloudy
Fog And Mist
64°F / 18°C 63°F / 17°C 94% 29.8 in
(1009 mb)
SSE 5.8 mph
(SSE 9 kph)
- 6SM
04:58
Mostly Cloudy
64°F / 18°C 63°F / 17°C 94% 29.83 in
(1010 mb)
SSE 3.5 mph
(SSE 6 kph)
- 10SM
03:58
Mostly Cloudy
64°F / 18°C 63°F / 17°C 94% 29.83 in
(1010 mb)
S 4.6 mph
(S 7 kph)
- 10SM
02:58
Partly Cloudy
64°F / 18°C 61°F / 16°C 88% 29.83 in
(1010 mb)
SSE 6.9 mph
(SSE 11 kph)
- 10SM
01:58
Clear
66°F / 19°C 61°F / 16°C 83% 29.83 in
(1010 mb)
SW 3.5 mph
(SW 6 kph)
- 10SM
00:58
Clear
68°F / 20°C 61°F / 16°C 78% 29.86 in
(1011 mb)
SW 5.8 mph
(SW 9 kph)
- 10SM
Time Weather Temperature Dewpoint Humidity Pressure Winds Precip Visibility


Weather for websites

WeatherForYou.com, LLC is not responsible for any damages or problems caused by this service. Current weather conditions are obtained from the closest station including government and personal stations which may have varying degrees of accuracy. Weather forecasts are derived from the NOAA NDFD. Like all things, this site belongs to Jesus Christ... He just trusts me to maintain it. If you have any questions or comments email webmaster@weatherforyou.com

Copyright © 2014, WeatherForYou.com LLC. All rights reserved.